This is the latest recevied weather packets stored in our database for station/object SV9TNF-2. If no packets are shown the sender has not sent any weather packets the latest 10 day(s).
| Time | Temp. | Humidity | Pressure | Rain* | Wind** | Luminosity | Snow |
|---|---|---|---|---|---|---|---|
| 1777569899 | 19.44° C | 51% | 1019.6 hPa | 0 mm | 4.92 m/s, 164° | - | - |
| 1777569598 | 19.44° C | 49% | 1019.6 hPa | 0 mm | 5.81 m/s, 229° | - | - |
| 1777569298 | 19.44° C | 49% | 1019.6 hPa | 0 mm | 4.47 m/s, 196° | - | - |
| 1777568998 | 20° C | 49% | 1019.6 hPa | 0 mm | 3.13 m/s, 221° | - | - |
| 1777568698 | 20.56° C | 45% | 1019.6 hPa | 0 mm | 4.47 m/s, 183° | - | - |
| 1777568398 | 21.11° C | 44% | 1019.6 hPa | 0 mm | 7.6 m/s, 202° | - | - |
| 1777568098 | 21.67° C | 40% | 1019.6 hPa | 0 mm | 4.47 m/s, 180° | - | - |
| 1777567798 | 21.67° C | 40% | 1019.6 hPa | 0 mm | 4.02 m/s, 214° | - | - |
| 1777567498 | 22.78° C | 38% | 1020 hPa | 0 mm | 4.92 m/s, 172° | - | - |
| 1777567198 | 23.33° C | 35% | 1020 hPa | 0 mm | 3.13 m/s, 189° | - | - |
| 1777566898 | 23.33° C | 40% | 1020 hPa | 0 mm | 1.34 m/s, 207° | - | - |
| 1777566598 | 24.44° C | 37% | 1020 hPa | 0 mm | 0 m/s | - | - |
| 1777566297 | 24.44° C | 41% | 1020 hPa | 0 mm | 0 m/s | - | - |
| 1777565998 | 25° C | 33% | 1020 hPa | 0 mm | 0 m/s | - | - |
| 1777565697 | 25° C | 29% | 1020 hPa | 0 mm | 0 m/s | - | - |
| 1777565397 | 23.89° C | 34% | 1020 hPa | 0 mm | 0 m/s | - | - |
| 1777565097 | 24.44° C | 34% | 1020 hPa | 0 mm | 0 m/s | - | - |
| 1777564798 | 25.56° C | 36% | 1020 hPa | 0 mm | 0 m/s | - | - |
| 1777564497 | 26.67° C | 29% | 1020 hPa | 0 mm | 0 m/s | - | - |
| 1777564197 | 26.11° C | 27% | 1020 hPa | 0 mm | 0 m/s | - | - |
| 1777563897 | 26.67° C | 25% | 1020 hPa | 0 mm | 0 m/s | - | - |
| 1777563597 | 26.67° C | 33% | 1020 hPa | 0 mm | 0 m/s | - | - |
| 1777563296 | 26.11° C | 33% | 1020 hPa | 0 mm | 0 m/s | - | - |
| 1777562996 | 25.56° C | 33% | 1020 hPa | 0 mm | 0 m/s | - | - |
| 1777562696 | 25.56° C | 43% | 1020 hPa | 0 mm | 0.45 m/s, 134° | - | - |
* Rain latest hour (hover to see other rain measurements)
** Current wind speed in m/s (hover to see current wind gust speed)